Other Public Products
Issued by NWS Grand Forks, ND

Home | Current Version | Previous Version | Graphics & Text | Print | Product List | Glossary On
Versions: 1 2 3 4 5 6 7 8 9 10 11 12 13 14 15 16 17 18 19 20 21 22 23 24 25 26 27 28 29 30 31 32 33 34 35 36 37 38 39 40 41 42 43 44 45 46 47 48 49 50
000
FPUS83 KFGF 251510
OPUFGF
PRAIRIE TO PINES WEATHER ROUNDUP
NATIONAL WEATHER SERVICE EASTERN NORTH DAKOTA/GRAND FORKS ND
900 AM CST THU DEC 25 2014

 **SATELLITE DATA USED TO AUGMENT SKY COVER AT AUTOMATED STATIONS**
 *****  WEATHER ACROSS EASTERN NORTH DAKOTA  *****

CITY           SKY/WX    TMP DP  RH WIND       PRES   REMARKS
GRAND FORKS    CLOUDY    26  22  84 W9        29.67R WCI  17
GRAND FORKS AF CLOUDY    26  25  99 NW10      29.67R WCI  15
GRAND CITY NWS   N/A     27 N/A N/A NW6         N/A  WCI  20
BUXTON         NOT AVBL
DEVILS LAKE    CLOUDY    21  18  86 W8        29.66R WCI  12
FARGO          CLOUDY    28  24  85 NW8       29.67R WCI  20
WAHPETON ARPT  CLOUDY    27  23  86 NW8       29.68R WCI  18
$$

 *****  WEATHER ACROSS CENTRAL AND WESTERN NORTH DAKOTA  *****

CITY           SKY/WX    TMP DP  RH WIND       PRES   REMARKS
JAMESTOWN      MOCLDY    22  18  85 N10       29.66R WCI  11
BISMARCK       CLOUDY    27  23  85 NW9       29.71R WCI  18
MINOT          CLOUDY    26  21  81 NW9       29.70R WCI  17
MINOT AFB      CLOUDY    26  25  98 NW10      29.70R WCI  15
GARRISON         N/A     27  25  92 NW8       29.69R WCI  19
WILLISTON      CLOUDY    25  19  78 N12       29.78R WCI  14
DICKINSON      CLOUDY    26  22  84 NW10      29.70R FOG     WCI  16
HETTINGER      CLOUDY    25  21  85 N13       29.71R WCI  14
$$

 *****  OTHER OBSERVATIONS NORTHEAST NORTH DAKOTA  *****

CITY           SKY/WX    TMP DP  RH WIND       PRES   REMARKS
WALHALLA         N/A     25  25 100 NW12      29.67R WCI  14
LANGDON        CLOUDY    25  23  93 N13       29.63R WCI  13
CAVALIER       CLOUDY    27  23  86 N10       29.67R WCI  17
GRAFTON        NOT AVBL
CANDO          CLOUDY    23  23 100 W10       29.67R WCI  12
FORT TOTTEN    NOT AVBL
ROLLA          CLOUDY    25  25 100 NW13      29.66R WCI  13
RUGBY          CLOUDY    25  23  93 NW14      29.68R WCI  13
 ***** THE ABOVE OBSERVATIONS ARE NON NWS ARE NOT QUALITY
        CONTROLLED AND MAY MIS-REPORT RAIN FOR SNOW...
$$

 *****  OTHER OBSERVATIONS SOUTHEAST NORTH DAKOTA *****

CITY           SKY/WX    TMP DP  RH WIND       PRES   REMARKS
COOPERSTOWN    NOT AVBL
VALLEY CITY    CLOUDY    23  23 100 N13       29.66R FOG     WCI  11
OAKES            N/A     25  25 100 NW10      29.67R WCI  15
GWINNER        MOSUNNY   25  27 100 CALM      29.69R
BUFFALO        NOT AVBL
WYNDMERE         N/A     27  25  93 N8          N/A  WCI  18
 ***** THE ABOVE OBSERVATIONS ARE NON NWS ARE NOT QUALITY
       CONTROLLED AND MAY MIS-REPORT RAIN FOR SNOW...
$$

  *****  WEATHER ACROSS NORTHERN MINNESOTA  *****

CITY           SKY/WX    TMP DP  RH WIND       PRES   REMARKS
FLAG ISLAND    CLOUDY    28  27  93 W8        29.55R WCI  20
WARROAD        CLOUDY    28  25  86 W8        29.59R WCI  20
ROSEAU         CLOUDY    30  25  80 W9        29.59R WCI  22
HALLOCK        CLOUDY    28  25  86 NW10      29.64R WCI  19
THF RVR FALLS  CLOUDY    28  25  86 W12       29.64R WCI  18
HALSTAD          N/A     28  25  89 NW10        N/A  WCI  18
FOSSTON        CLOUDY    27  25  93 CALM      29.63S
BAUDETTE       CLOUDY    29  25  85 SW5       29.57R WCI  24
WASKISH        CLOUDY    28  28 100 CALM      29.60R
CROOKSTON      CLOUDY    27  25  93 NW14      29.67R WCI  15
$$
  *****  WEATHER ACROSS CENTRAL AND WEST MINNESOTA  *****

CITY           SKY/WX    TMP DP  RH WIND       PRES   REMARKS
BEMIDJI        CLOUDY    27  25  91 NW13      29.61R FOG     WCI  16
PARK RAPIDS    CLOUDY    30  27  88 W8        29.61R WCI  22
WADENA         CLOUDY    28  28 100 W7        29.62R FOG     WCI  21
DETROIT LAKES  CLOUDY    28  27  93 N9        29.65R FOG     WCI  20
MOORHEAD       CLOUDY    28  28 100 NW5       29.68R WCI  23
FERGUS FALLS   CLOUDY    27  27 100 NW8       29.68R WCI  18
ELBOW LAKE     FAIR      28  27  96 NW6       29.65R WCI  22
MORRIS MN      CLOUDY    30  28  93 CALM      29.65R FOG
STAPLES        CLOUDY    28  27  93 SW7       29.63R WCI  21
WHEATON        CLOUDY    28  27  93 NW6       29.69R WCI  22
$$
  *****  WEATHER ELSEWHERE ACROSS MINNESOTA  *****

CITY           SKY/WX    TMP DP  RH WIND       PRES   REMARKS
DULUTH         CLOUDY    31  27  85 W14       29.60R WCI  21
INTRNTL FALLS  CLOUDY    30  27  88 W7        29.56R WCI  23
ELY            CLOUDY    30  27  86 W6        29.56R WCI  24
CLOQUET        CLOUDY    30  28  93 SW7       29.62R FOG     WCI  23
BRAINERD       CLOUDY    30  27  88 SW6       29.63R WCI  24
HIBBING        CLOUDY    31  26  82 W5        29.59R
ALEXANDRIA     CLOUDY    29  27  92 SW6       29.64R WCI  23
SAINT CLOUD    CLOUDY    33  27  78 S7        29.67R
MINNEAPOLIS    CLOUDY    31  26  82 S5        29.70R
$$

  *****  WEATHER ACROSS SOUTH DAKOTA  *****

CITY           SKY/WX    TMP DP  RH WIND       PRES   REMARKS
SIOUX FALLS    MOCLDY    30  27  88 NE5       29.63R
BROOKINGS      NOT AVBL
WATERTOWN      LGT SNOW  29  27  92 N9        29.63R FOG     WCI  20
HURON          LGT SNOW  28  26  92 NE9       29.63R VSB 1   WCI  19
SISSETON         N/A     30  25  81 N13       29.66R WCI  20
ABERDEEN       CLOUDY    31  25  78 N13       29.67R WCI  21
MITCHELL       CLOUDY    30  26  85 NE5       29.63R
PIERRE         LGT SNOW  31  29  92 NE15      29.65R VSB 1   WCI  20
MOBRIDGE       CLOUDY    30  25  81 N6        29.65R WCI  24
RAPID CITY     SNOW      30  28  92 N17       29.65R VSB 1/2 WCI  18
$$

  *****  SOME WEATHER IN NEARBY STATES *****

CITY           SKY/WX    TMP DP  RH WIND       PRES   REMARKS
GLASGOW MT     CLOUDY    25  18  74 NW17      29.83R WCI  12
GREAT FALLS MT CLOUDY    23  20  88 CALM      29.86R
CHEYENNE WY    LGT SNOW  31  26  82 N9        29.46R WCI  23
SCOTTSBLUFF NE MIX PCPN  32  26  78 N15G24    29.51R WCI  22
OMAHA NE       MOCLDY    33  27  78 S15       29.68R WCI  23
DES MOINES IA  CLOUDY    35  27  72 S12       29.75R
DAVENPORT IA   SUNNY     34  28  79 S12       29.88S
CHICAGO IL     CLOUDY    34  27  75 SW16G22   29.91R WCI  24
EAU CLAIRE WI  CLOUDY    30  26  85 S10       29.71R WCI  21
LA CROSSE WI   CLOUDY    33  27  78 S7        29.78R
$$

  *****  SOME NATIONAL WEATHER *****

CITY           SKY/WX    TMP DP  RH WIND       PRES   REMARKS
LA GUARDIA NY  CLOUDY    50  34  54 W22G31    29.72R
RALEIGH NC     PTSUNNY   53  35  50 W12G18    30.02R
ATLANTA GA     MOSUNNY   43  36  76 NW12      30.20R
NEW ORLEANS LA MOSUNNY   49  38  65 SE3       30.27R
OKLAHOMA CITY  PTSUNNY   44  25  47 S26G33    29.81S
ALBUQUERQUE NM PTCLDY    34  11  38 S9        29.72S
SALT LAKE CITY CLOUDY    32  21  64 W15       29.60R WCI  22
LOS ANGELES CA PTCLDY    54  29  38 NW15G21   29.83R
BOISE ID       MOCLDY    29  23  78 NW16      29.82R WCI  17
SEATTLE WA     MOCLDY    40  38  93 S5        30.15R
$$

*** WEATHER ACROSS MANITOBA...SASKATCHEWAN AND ONTARIO ***
                ***ONTARIO***

CITY           SKY/WX    TMP DP  RH WIND       PRES   REMARKS
GERALDTON      CLOUDY    25  23  93 W8        29.50R WCI  16
THUNDER BAY    CLOUDY    28  28 100 NW3       29.58R
SIOUX LOOKOUT  FLURRIES  28  27  93 W6        29.50R WCI  22
TORONTO        PTSUNNY   39  34  81 W22G35    29.69R
BIG TROUT LK   LGT SNOW  19  18  93 NE2       29.53R
PICKLE LAKE    MOCLDY    23  21  93 E5        29.48R WCI  17
DRYDEN         LGT SNOW  28  27  93 W9        29.51R WCI  20
KENORA         LGT SNOW  27  27 100 W9        29.53R WCI  17
$$
                *** MANITOBA***

CITY           SKY/WX    TMP DP  RH WIND       PRES   REMARKS
BRANDON        MOCLDY    23  21  93 NW9       29.69R WCI  13
DAUPHIN        CLOUDY    21  19  93 N9        29.72R WCI  11
ISLAND LAKE    NOT AVBL
PILOT MOUND    NOT AVBL
THE PAS        FLURRIES  18  14  86 NW15G23   29.73R WCI   3
THOMPSON       FLURRIES  16  12  86 N7        29.66R WCI   6
WINNIPEG       CLOUDY    23  21  93 W17       29.65R WCI   9
GILLAM         FLURRIES  14  12  92 N5        29.63R WCI   6
$$
                ***SASKATCHEWAN***

CITY           SKY/WX    TMP DP  RH WIND       PRES   REMARKS
ESTEVAN        FLURRIES  23  19  86 NW13      29.73R WCI  11
KINDERSLEY     CLOUDY     0  -4  85 NW3       29.91R
LLOYDMINSTER   FLURRIES   9   5  85 NW8       29.90R WCI  -4
PRINCE ALBERT  MOCLDY     0  -6  78 NW9       29.89R WCI -16
REGINA         FLURRIES  18  14  86 NW18      29.79R WCI   2
YORKTON        LGT SNOW  19  18  93 NW8       29.73R WCI   9
N. BATTLEFORD  CLEAR     -4  -8  84 NW15      29.96R WCI -25
LA RONGE       FLURRIES  -4  -9  77 NW6       29.93R WCI -16



USA.gov is the U.S. government's official web portal to all federal, state and local government web resources and services.